Location: ??????????
(41.2581°N, 22.8006°E)
Time: 06:44:05
(UTC+00:00)

USA 215 - Visible Passes

Search period start: 11 March 2026 00:00
Search period end: 21 March 2026 00:00
Orbit: 1098 x 1109 km, 123.0° (Epoch: 10 January)

Date Brightness Start Highest point End Pass type
(mag) Time Alt. Az. Time Alt. Az. Time Alt. Az.
11 Mar 3.7 01:33:44 10° NE 01:39:05 53° N 01:39:05 53° N visible
11 Mar 4.5 03:17:02 10° NE 03:22:21 27° NNW 03:26:26 15° WNW visible
12 Mar 4.4 00:50:54 10° NE 00:54:39 38° NE 00:54:39 38° NE visible
12 Mar 4.1 02:34:11 10° NE 02:40:07 37° NNW 02:42:00 31° WNW visible
12 Mar 4.8 04:17:03 10° NE 04:21:55 23° N 04:26:47 10° NW visible
13 Mar 5.3 00:08:23 10° ENE 00:10:14 19° ENE 00:10:14 19° ENE visible
13 Mar 3.4 01:51:15 10° NE 01:57:35 59° NNW 01:57:35 59° NNW visible
13 Mar 4.5 03:34:33 10° NE 03:39:51 27° NNW 03:44:56 11° WNW visible
14 Mar 3.9 01:08:24 10° NE 01:13:10 51° ENE 01:13:10 51° ENE visible
14 Mar 4.1 02:51:43 10° NE 02:57:38 37° NNW 03:00:31 26° WNW visible
15 Mar 4.9 00:25:54 10° ENE 00:28:46 25° ENE 00:28:46 25° ENE visible
15 Mar 3.4 02:08:46 10° NE 02:15:12 59° NW 02:16:07 54° WNW visible
15 Mar 4.5 03:52:04 10° NE 03:57:22 27° NNW 04:02:40 10° WNW visible
15 Mar 5.8 23:44:17 10° ENE 23:44:22 10° ENE 23:44:22 10° ENE visible
16 Mar 3.4 01:25:56 10° NE 01:31:44 70° ENE 01:31:44 70° ENE visible
16 Mar 4.1 03:09:14 10° NE 03:15:08 37° NNW 03:19:05 20° W visible
17 Mar 4.6 00:43:25 10° ENE 00:47:21 33° E 00:47:21 33° E visible
17 Mar 3.4 02:26:18 10° NE 02:32:44 58° NW 02:34:43 42° W visible
17 Mar 4.5 04:09:35 10° NE 04:14:53 27° NNW 04:20:10 10° WNW visible
18 Mar 5.5 00:01:46 10° ENE 00:02:59 14° E 00:02:59 14° E visible
18 Mar 3.1 01:43:26 10° NE 01:50:03 82° SE 01:50:21 80° S visible
18 Mar 4.1 03:26:45 10° NE 03:32:40 37° NNW 03:37:42 14° W visible
19 Mar 4.2 01:00:56 10° ENE 01:06:00 40° ESE 01:06:00 40° ESE visible
19 Mar 3.5 02:43:49 10° NE 02:50:14 58° NW 02:53:21 31° W visible
20 Mar 5.3 00:19:17 10° ENE 00:21:40 17° E 00:21:40 17° E visible
20 Mar 3.2 02:00:58 10° NE 02:07:35 83° SE 02:09:02 58° SW visible
20 Mar 4.1 03:44:16 10° NE 03:50:10 37° NNW 03:56:04 10° W visible
